Regional Weather Roundup
Issued by NWS

Home | Current Version | Previous Version | Graphics & Text | Print | Product List | Glossary On
Versions: 1 2 3 4 5 6 7 8 9 10 11 12 13 14 15 16 17 18 19 20 21 22 23 24 25 26 27 28 29 30 31 32 33 34 35 36 37 38 39 40 41 42 43 44 45 46 47 48 49 50
000
ASUS43 KDTX 301201
RWRMI
MICHIGAN HOURLY REGIONAL WEATHER ROUNDUP
NATIONAL WEATHER SERVICE DETROIT/PONTIAC MI
800 AM EDT THU OCT 30 2014

NOTE: "FAIR" INDICATES FEW OR NO CLOUDS BELOW 12,000 FEET WITH NO
SIGNIFICANT WEATHER AND/OR OBSTRUCTION TO VISIBILITY.

MIZ047>049-052>055-059>063-066>070-074>076-081>083-301300-
SOUTHEAST LOWER MICHIGAN

CITY           SKY/WX    TMP DP  RH WIND       PRES   REMARKS
ADRIAN         CLEAR     32  31  96 W5        30.14S WCI  27
6HR MIN TEMP:  31; 6HR MAX TEMP:  40;

ALMA           CLOUDY    38  37  96 CALM      30.12R
ANN ARBOR      MOCLDY    30  27  88 SW3       30.12S
BAD AXE        CLEAR     31  31  99 W3        30.10S
6HR MIN TEMP:  30; 6HR MAX TEMP:  42;

CARO           CLEAR     32  32  99 CALM      30.10S
DETROIT CITY   CLOUDY    44  31  60 NW6       30.13S
6HR MIN TEMP:  44; 6HR MAX TEMP:  45;

DETROIT        PTCLDY    36  34  92 NW5       30.13S WCI  32
6HR MIN TEMP:  36; 6HR MAX TEMP:  41;

FLINT          CLEAR     33  29  85 S5        30.12S WCI  29
6HR MIN TEMP:  32; 6HR MAX TEMP:  40;

GROSSE ILE     CLEAR     37  34  87 W5        30.12S WCI  34
HILLSDALE      CLOUDY    36  35  99 CALM      30.12S
6HR MIN TEMP:  31; 6HR MAX TEMP:  36;

HOWELL         PTCLDY    33  33  97 W3        30.11S
6HR MIN TEMP:  32; 6HR MAX TEMP:  37;


CITY           SKY/WX    TMP DP  RH WIND       PRES   REMARKS
JACKSON        PTCLDY    31  30  96 CALM      30.12S
6HR MIN TEMP:  30; 6HR MAX TEMP:  36;

LAMBERTVILLE   CLEAR     32  32 100 CALM      30.14S
LANSING        CLOUDY    39  36  89 SW3       30.13R
6HR MIN TEMP:  31; 6HR MAX TEMP:  39;

LAPEER         FAIR      37  33  84 CALM      30.11F
MASON          CLOUDY    38  36  92 CALM      30.12S
MONROE         CLEAR     34  32  93 CALM      30.12S
MT. CLEMENS    PTCLDY    39  32  76 N6        30.09F WCI  35
6HR MIN TEMP:  39; 6HR MAX TEMP:  43;

PONTIAC        PTCLDY    36  33  89 CALM      30.11S
6HR MIN TEMP:  36; 6HR MAX TEMP:  41;

PORT HOPE        N/A     37  32  82 W3        30.08R
6HR MIN TEMP:  37; 6HR MAX TEMP:  44;

PORT HURON     CLEAR     36  32  87 CALM      30.11S
TRI CITIES     CLOUDY    36  33  89 SW5       30.13R WCI  32
6HR MIN TEMP:  34; 6HR MAX TEMP:  38;

TROY           CLOUDY    43  31  64 NW3       30.13S
SAGINAW HB     MOCLDY    34  34 100 CALM      30.11S
$$
MIZ043>046-050>051-056>058-064>065-071>073-077>080-301300-
SOUTHWEST LOWER MICHIGAN

CITY           SKY/WX    TMP DP  RH WIND       PRES   REMARKS
BATTLE CREEK   CLOUDY    43  36  76 S5        30.12S
6HR MIN TEMP:  42; 6HR MAX TEMP:  43;

BENTON HARBOR  CLOUDY    45  37  73 S3        30.13R
6HR MIN TEMP:  44; 6HR MAX TEMP:  47;

BIG RAPIDS     CLOUDY    37  37 100 CALM      30.09S
6HR MIN TEMP:  31; 6HR MAX TEMP:  38;

COLDWATER      CLOUDY    43  41  92 CALM      30.13R
6HR MIN TEMP:  42; 6HR MAX TEMP:  43;

FREMONT        CLOUDY    41  38  89 CALM      30.10R
HOLLAND        CLOUDY    46  38  73 S3        30.12R
6HR MIN TEMP:  45; 6HR MAX TEMP:  46;

GRAND RAPIDS   CLOUDY    42  39  89 CALM      30.12R
6HR MIN TEMP:  34; 6HR MAX TEMP:  42;

IONIA          CLOUDY    40  38  93 CALM      30.11S
KALAMAZOO      CLOUDY    44  38  79 S5        30.12S
6HR MIN TEMP:  43; 6HR MAX TEMP:  44;

LUDINGTON      CLOUDY    46  38  74 W9        30.10S
6HR MIN TEMP:  37; 6HR MAX TEMP:  47;

MARSHALL       CLOUDY    39  37  94 CALM      30.12R
MOUNT PLEASANT CLOUDY    36  35  96 CALM      30.11R
6HR MIN TEMP:  30; 6HR MAX TEMP:  36;

MUSKEGON       CLOUDY    45  39  79 SE3       30.12R
6HR MIN TEMP:  44; 6HR MAX TEMP:  45;

SOUTH HAVEN    CLOUDY    46  40  80 CALM      30.12R
$$
MIZ016>042-301300-
NORTHERN LOWER MICHIGAN

CITY           SKY/WX    TMP DP  RH WIND       PRES   REMARKS
ALPENA         CLOUDY    33  31  92 SW3       30.08S
6HR MIN TEMP:  31; 6HR MAX TEMP:  38;

BEAVER ISLAND  CLOUDY    38  37  94 CALM      30.07S
6HR MIN TEMP:  34; 6HR MAX TEMP:  38;

CADILLAC       CLOUDY    38  36  92 SW3       30.07R
CHARLEVOIX     CLOUDY    40  35  83 S5        30.10S
6HR MIN TEMP:  39; 6HR MAX TEMP:  41;

FRANKFORT      CLOUDY    38  37  99 CALM      30.08S
GAYLORD        CLOUDY    34  33  96 SW3       30.06S
6HR MIN TEMP:  34; 6HR MAX TEMP:  37;

GRAYLING       CLOUDY    32  31  99 CALM      30.09R
6HR MIN TEMP:  28; 6HR MAX TEMP:  36;

HARBOR SPRINGS CLOUDY    37  34  89 CALM      30.08R
HOUGHTON LAKE  CLOUDY    38  35  89 S5        30.08S WCI  34
6HR MIN TEMP:  34; 6HR MAX TEMP:  38;

MANISTEE       CLOUDY    39  37  93 CALM      30.10R
OSCODA         PTCLDY    26  26  96 W3        30.10R
PELLSTON       CLOUDY    35  33  92 CALM      30.08S
6HR MIN TEMP:  28; 6HR MAX TEMP:  35;

ROGERS CITY    CLOUDY    34  32  93 SW5       30.09R WCI  30
TRAVERSE CITY  CLOUDY    42  36  79 CALM      30.08S
6HR MIN TEMP:  41; 6HR MAX TEMP:  44;

$$
MIZ007>008-015-301300-
EASTERN UPPER MICHIGAN

CITY           SKY/WX    TMP DP  RH WIND       PRES   REMARKS
KINROSS        CLOUDY    34  34 100 W3        30.06S
6HR MIN TEMP:  32; 6HR MAX TEMP:  36;

MACKINAC ISLAN CLOUDY    40  34  79 CALM      30.06S
NEWBERRY       CLOUDY    35  34  98 SW8       30.04F WCI  28
S. S. MARIE    CLOUDY    35  32  88 CALM      30.05R
6HR MIN TEMP:  34; 6HR MAX TEMP:  38; 6HR PCP: TRACE;

MUNISING         N/A     40  35  83 SW5       30.04S
6HR MIN TEMP:  39; 6HR MAX TEMP:  40;

$$
MIZ004>006-011>014-085-301300-
CENTRAL UPPER MICHIGAN

CITY           SKY/WX    TMP DP  RH WIND       PRES   REMARKS
MANISTIQUE     CLOUDY    38  37  96 CALM      30.06S
ESCANABA       CLOUDY    39  34  81 CALM      30.06S
6HR MIN TEMP:  37; 6HR MAX TEMP:  39;

MENOMINEE      CLOUDY    41  34  75 W3        30.06S
6HR MIN TEMP:  37; 6HR MAX TEMP:  41;

SAWYER-GWINN   CLOUDY    37  34  87 CALM      30.03S
$$
MIZ001>003-009>011-084-301300-
WESTERN UPPER MICHIGAN

CITY           SKY/WX    TMP DP  RH WIND       PRES   REMARKS
IRON MOUNTAIN  CLOUDY    39  33  79 CALM      30.03S
6HR MIN TEMP:  38; 6HR MAX TEMP:  40;

HOUGHTON       LGT RAIN  38  35  89 SW7       30.00F WCI  33
6HR MIN TEMP:  38; 6HR MAX TEMP:  40; 6HR PCP:  0.03;

COPPER HARBOR    N/A     40  37  89 CALM      30.01F
6HR MIN TEMP:  39; 6HR MAX TEMP:  41;

IRONWOOD       CLOUDY    37  34  87 SW5       30.01F WCI  34
6HR MIN TEMP:  37; 6HR MAX TEMP:  37;

$$

ABBREVIATIONS USED IN REMARKS
   TC - TEMPERATURE IN CELSIUS
  WCI - WIND CHILL INDEX
   HX - HEAT INDEX
  VSB - VISIBILITY




USA.gov is the U.S. government's official web portal to all federal, state and local government web resources and services.